Find Starlink 3366

NORAD ID: 51104 Int'l Des: 2022-005 Owner: SPXS Country: US Constellation: starlink operational
LEOCIRCULAR

Current View

Loading 3D Globe...

About Starlink 3366

Starlink 3366 (NORAD 51104) is a starlink constellation satellite (v1.5) launched Jan 19, 2022 by SPXS of US. It operates in LEO, CIRCULAR orbit with a mass of 297.00 kg.

About Starlink 3366

Description loading...

Upcoming Passes

Passes for default location (London). Set your location on the main map for personalized predictions.

Altitude History

Loading altitude history...

Two-Line Element Set

1 51104U 22005A 26171.34248073 .00015053 00000-0 95083-3 0 9990
2 51104 53.1905 188.2013 0001306 65.7359 294.3769 15.09262764244376
Epoch: Jun 20, 2026 • Age: 15 hours

Current Status

Altitude 557.0 km
Velocity 7.58 km/s
Sub-Earth Point -51.15°S, 168.86°E
Launch Date Jan 19, 2022
Age 4.4 years
Type internet

Technical Details

Classification Payload
Mass 297.00 kg
Dry Mass 275.00 kg
Total Mass 297.00 kg
Length 0.20 m
Diameter 2.80 m
Span 9.00 m
Shape Box + pan
Manufacturer SPXS
Bus Type Starlink
Phase Status In Orbit
Owner/State SPXS/US

Most Searched